| time (UTC) | temp C | wind direction | speed KPH | gust KPH | rain 1hr cm | rain 24hr cm | rain mn cm | humidity % | barometer mb |
| 20260506231559 | 15 | 0 | 0.0 | 0.0 | 0.00 | 1.42 | 1.42 | 96 | 1009.5 |
| 20260506230105 | 15 | 0 | 0.0 | 0.0 | 0.03 | 1.42 | 1.42 | 96 | 1009.2 |
| 20260506224600 | 15 | 0 | 0.0 | 0.0 | 0.03 | 1.42 | 1.42 | 96 | 1009.5 |
| 20260506223101 | 15 | 0 | 0.0 | 0.0 | 0.03 | 1.42 | 1.42 | 96 | 1009.3 |
| 20260506221601 | 15 | 0 | 0.0 | 3.2 | 0.03 | 1.42 | 1.42 | 96 | 1009.3 |
| 20260506220101 | 15 | 0 | 0.0 | 4.8 | 0.00 | 1.40 | 1.40 | 96 | 1009.1 |
| 20260506214600 | 15 | 0 | 0.0 | 4.8 | 0.00 | 1.40 | 1.40 | 96 | 1008.9 |
| 20260506213058 | 15 | 227 | 0.0 | 6.4 | 0.00 | 1.40 | 1.40 | 97 | 1008.7 |
| 20260506211558 | 15 | 243 | 1.6 | 8.0 | 0.00 | 1.40 | 1.40 | 97 | 1008.6 |
| 20260506210058 | 15 | 0 | 1.6 | 11.3 | 0.00 | 1.40 | 1.40 | 97 | 1008.5 |
| 20260506204600 | 15 | 0 | 0.0 | 6.4 | 0.00 | 1.40 | 1.40 | 97 | 1008.4 |
| 20260506203059 | 15 | 232 | 1.6 | 8.0 | 0.00 | 1.40 | 1.40 | 97 | 1008.4 |
| 20260506201625 | 15 | 245 | 1.6 | 6.4 | 0.00 | 1.40 | 1.40 | 97 | 1008.4 |
| 20260506200058 | 15 | 233 | 1.6 | 14.5 | 0.00 | 1.40 | 1.40 | 97 | 1008.5 |
| 20260506194559 | 15 | 63 | 0.0 | 6.4 | 0.00 | 1.40 | 1.40 | 97 | 1008.5 |
| 20260506193058 | 15 | 233 | 0.0 | 8.0 | 0.00 | 1.40 | 1.40 | 97 | 1008.6 |
| 20260506191559 | 14 | 216 | 0.0 | 6.4 | 0.03 | 1.40 | 1.40 | 97 | 1008.8 |
| 20260506190107 | 14 | 226 | 3.2 | 14.5 | 0.05 | 1.40 | 1.40 | 97 | 1008.8 |
| 20260506184601 | 14 | 192 | 1.6 | 8.0 | 0.13 | 1.40 | 1.40 | 97 | 1008.9 |
| 20260506183059 | 14 | 182 | 1.6 | 11.3 | 0.20 | 1.40 | 1.40 | 97 | 1009.0 |
| 20260506181601 | 14 | 198 | 1.6 | 9.7 | 0.28 | 1.37 | 1.37 | 97 | 1009.1 |
| 20260506180059 | 14 | 153 | 3.2 | 11.3 | 0.33 | 1.32 | 1.32 | 97 | 1009.1 |
| 20260506174601 | 14 | 207 | 1.6 | 19.3 | 0.36 | 1.27 | 1.27 | 97 | 1009.2 |
| 20260506173130 | 14 | 149 | 3.2 | 14.5 | 0.43 | 1.19 | 1.19 | 97 | 1009.2 |
| 20260506171601 | 14 | 143 | 1.6 | 12.9 | 0.33 | 1.09 | 1.09 | 97 | 1009.3 |
| 20260506164559 | 14 | 148 | 4.8 | 20.9 | 0.18 | 0.91 | 0.91 | 96 | 1009.4 |
| 20260506163114 | 13 | 207 | 3.2 | 16.1 | 0.08 | 0.76 | 0.76 | 96 | 1009.4 |
| 20260506161605 | 13 | 214 | 3.2 | 16.1 | 0.18 | 0.76 | 0.76 | 96 | 1009.5 |
| 20260506160103 | 13 | 197 | 3.2 | 14.5 | 0.30 | 0.76 | 0.76 | 95 | 1009.5 |
| 20260506154602 | 13 | 187 | 8.0 | 22.5 | 0.36 | 0.74 | 0.74 | 95 | 1009.4 |
| 20260506153100 | 13 | 168 | 6.4 | 20.9 | 0.36 | 0.69 | 0.69 | 95 | 1009.5 |
| 20260506151559 | 13 | 163 | 6.4 | 19.3 | 0.33 | 0.58 | 0.58 | 95 | 1009.8 |
| 20260506150057 | 14 | 172 | 4.8 | 16.1 | 0.25 | 0.46 | 0.46 | 95 | 1010.2 |
| 20260506144601 | 14 | 173 | 6.4 | 17.7 | 0.20 | 0.38 | 0.38 | 95 | 1009.8 |
| 20260506143100 | 14 | 125 | 1.6 | 11.3 | 0.18 | 0.33 | 0.33 | 95 | 1009.8 |
| 20260506141600 | 14 | 160 | 4.8 | 12.9 | 0.13 | 0.25 | 0.25 | 94 | 1009.7 |
| 20260506140104 | 14 | 165 | 4.8 | 14.5 | 0.13 | 0.20 | 0.20 | 93 | 1010.1 |
| 20260506134559 | 14 | 182 | 1.6 | 12.9 | 0.13 | 0.18 | 0.18 | 93 | 1010.2 |
| 20260506133103 | 14 | 0 | 3.2 | 12.9 | 0.13 | 0.15 | 0.15 | 93 | 1010.1 |
| 20260506131600 | 14 | 154 | 3.2 | 14.5 | 0.10 | 0.13 | 0.13 | 92 | 1010.3 |
| 20260506130106 | 14 | 170 | 1.6 | 14.5 | 0.08 | 0.08 | 0.08 | 91 | 1010.4 |
| 20260506124600 | 15 | 187 | 1.6 | 12.9 | 0.05 | 0.05 | 0.05 | 90 | 1010.5 |
| 20260506123058 | 15 | 172 | 3.2 | 17.7 | 0.03 | 0.03 | 0.03 | 88 | 1010.4 |
| 20260506121626 | 15 | 189 | 4.8 | 14.5 | 0.03 | 0.03 | 0.03 | 86 | 1010.3 |
| 20260506120111 | 15 | 180 | 4.8 | 19.3 | 0.00 | 0.00 | 0.00 | 87 | 1010.1 |
| 20260506114619 | 15 | 175 | 4.8 | 12.9 | 0.00 | 0.00 | 0.00 | 87 | 1010.1 |
| 20260506113058 | 15 | 149 | 3.2 | 14.5 | 0.00 | 0.00 | 0.00 | 86 | 1010.0 |
| 20260506111557 | 15 | 205 | 1.6 | 14.5 | 0.00 | 0.00 | 0.00 | 83 | 1010.1 |
| 20260506110058 | 16 | 187 | 3.2 | 12.9 | 0.00 | 0.00 | 0.00 | 80 | 1010.1 |
| 20260506104600 | 16 | 261 | 4.8 | 16.1 | 0.00 | 0.00 | 0.00 | 77 | 1009.8 |
| 20260506103100 | 16 | 195 | 8.0 | 19.3 | 0.00 | 0.00 | 0.00 | 76 | 1009.7 |
| 20260506101557 | 16 | 139 | 3.2 | 11.3 | 0.00 | 0.00 | 0.00 | 76 | 1009.6 |
| 20260506100057 | 16 | 207 | 3.2 | 9.7 | 0.00 | 0.00 | 0.00 | 75 | 1009.5 |
| 20260506094600 | 16 | 171 | 0.0 | 3.2 | 0.00 | 0.00 | 0.00 | 74 | 1009.6 |
| 20260506093113 | 16 | 0 | 0.0 | 9.7 | 0.00 | 0.00 | 0.00 | 72 | 1009.8 |
| 20260506091558 | 16 | 187 | 1.6 | 9.7 | 0.00 | 0.00 | 0.00 | 71 | 1009.7 |
| 20260506090121 | 16 | 187 | 3.2 | 9.7 | 0.00 | 0.00 | 0.00 | 71 | 1009.7 |
| 20260506084558 | 16 | 161 | 1.6 | 9.7 | 0.00 | 0.08 | 0.00 | 70 | 1009.8 |
| 20260506083058 | 16 | 0 | 1.6 | 8.0 | 0.00 | 0.08 | 0.00 | 69 | 1009.8 |
| 20260506081557 | 16 | 178 | 3.2 | 9.7 | 0.00 | 0.08 | 0.00 | 67 | 1009.8 |
| 20260506080110 | 16 | 145 | 3.2 | 9.7 | 0.00 | 0.08 | 0.00 | 66 | 1009.8 |
| 20260506073111 | 17 | 186 | 1.6 | 12.9 | 0.00 | 0.36 | 0.00 | 65 | 1010.0 |
| 20260506071557 | 16 | 159 | 1.6 | 6.4 | 0.00 | 0.36 | 0.00 | 65 | 1010.1 |
| 20260506061604 | 17 | 184 | 3.2 | 14.5 | 0.00 | 0.36 | 0.00 | 61 | 1010.6 |
| 20260506050104 | 17 | 276 | 1.6 | 14.5 | 0.00 | 0.36 | 0.00 | 58 | 1011.1 |
| 20260506044611 | 17 | 305 | 1.6 | 16.1 | 0.00 | 0.36 | 0.00 | 60 | 1011.1 |
| 20260506043059 | 17 | 0 | 1.6 | 11.3 | 0.00 | 0.36 | 0.00 | 59 | 1011.2 |
| 20260506041610 | 17 | 180 | 1.6 | 14.5 | 0.00 | 0.36 | 0.00 | 58 | 1011.2 |
| 20260506040104 | 17 | 159 | 0.0 | 12.9 | 0.00 | 0.36 | 0.00 | 56 | 1011.2 |
| 20260506034602 | 17 | 139 | 0.0 | 4.8 | 0.00 | 0.36 | 0.36 | 55 | 1011.2 |
| 20260506033059 | 18 | 0 | 1.6 | 11.3 | 0.00 | 0.36 | 0.36 | 53 | 1011.1 |
| 20260506031600 | 18 | 164 | 0.0 | 8.0 | 0.00 | 0.36 | 0.36 | 50 | 1011.2 |
| 20260506024608 | 19 | 180 | 3.2 | 12.9 | 0.00 | 0.36 | 0.36 | 48 | 1011.2 |
| 20260506023102 | 20 | 176 | 3.2 | 11.3 | 0.00 | 0.36 | 0.36 | 46 | 1011.3 |
| 20260506021558 | 20 | 148 | 4.8 | 14.5 | 0.00 | 0.36 | 0.36 | 45 | 1011.2 |
| 20260506020123 | 21 | 182 | 3.2 | 20.9 | 0.00 | 0.36 | 0.36 | 44 | 1011.2 |
| 20260506014559 | 21 | 160 | 3.2 | 16.1 | 0.00 | 0.36 | 0.36 | 45 | 1011.0 |
| 20260506013057 | 21 | 0 | 4.8 | 19.3 | 0.00 | 0.36 | 0.36 | 45 | 1010.9 |
| 20260506011600 | 21 | 222 | 3.2 | 19.3 | 0.00 | 0.36 | 0.36 | 44 | 1010.6 |
| 20260506010104 | 21 | 156 | 6.4 | 20.9 | 0.00 | 0.36 | 0.36 | 44 | 1010.4 |
| 20260506004600 | 21 | 173 | 8.0 | 20.9 | 0.00 | 0.36 | 0.36 | 46 | 1010.2 |
| 20260506003058 | 21 | 225 | 6.4 | 20.9 | 0.00 | 0.36 | 0.36 | 47 | 1010.3 |
| 20260506001607 | 22 | 186 | 4.8 | 20.9 | 0.00 | 0.36 | 0.36 | 45 | 1010.2 |
| 20260506000123 | 22 | 201 | 4.8 | 16.1 | 0.00 | 0.36 | 0.36 | 46 | 1010.1 |
| 20260505234616 | 22 | 158 | 6.4 | 22.5 | 0.00 | 0.36 | 0.36 | 44 | 1009.9 |
| 20260505233100 | 22 | 199 | 3.2 | 32.2 | 0.00 | 0.36 | 0.36 | 43 | 1009.8 |